Simultaneous Nadir Overpasses (SNOs) Predictions

Prediction of SNOs between AURA and NPP Satellite Orbit:

Table of predicted SNOs for the next 14.0 days since TLE Epoch: 7/8/2023
Index Date (AURA) Time (AURA) Lat,Lon (AURA) SZA (AURA ) Date (NPP) Time (NPP) Lat,Lon (NPP) SZA (NPP ) Distance(km) Time Diff (sec)
1 07/09/2023 03:12:01 -79.74,-148.87 109.87 07/09/2023 03:11:10 -79.73,-148.89 109.83 0.52 51
2 07/09/2023 04:01:21 79.92, 20.15 69.86 07/09/2023 04:01:49 79.91, 20.05 69.86 2.27 28
3 07/11/2023 18:37:49 79.84, 160.46 70.31 07/11/2023 18:37:17 79.85, 160.60 70.31 2.82 32
4 07/11/2023 19:27:10 -80.03, -30.37 109.99 07/11/2023 19:27:56 -80.04, -30.23 110.05 2.76 46
5 07/14/2023 10:03:40 -79.83, 108.88 109.28 07/14/2023 10:03:28 -79.82, 108.84 109.27 0.81 12
6 07/14/2023 10:52:59 80.03, -81.84 70.40 07/14/2023 10:54:06 80.02, -81.93 70.37 1.94 67
7 07/17/2023 00:40:08 -79.69,-111.23 108.66 07/17/2023 00:38:58 -79.69,-111.22 108.61 0.17 70
8 07/17/2023 01:29:27 79.90, 57.99 71.03 07/17/2023 01:29:36 79.89, 57.95 71.03 0.86 9
9 07/19/2023 16:05:55 79.73,-162.38 71.75 07/19/2023 16:05:07 79.73,-162.46 71.80 1.78 48



Historial Predications of SNOs between AURA and NPP
